Time,TemperatureF,DewpointF,PressureIn,WindDirection,WindDirectionDegrees,WindSpeedMPH,WindSpeedGustMPH,Humidity,HourlyPrecipIn,Conditions,Clouds,dailyrainin,SoftwareType,DateUTC
2013-01-09 00:11:00,46.4,44.0,30.17,West,277,0.0,-999.0,90,-99.99,,,0.00,weatherlink.com 1.10,2013-01-09 06:11:00,
2013-01-09 00:27:00,46.4,44.0,30.17,West,277,0.0,-999.0,90,-99.99,,,0.00,weatherlink.com 1.10,2013-01-09 06:27:00,
2013-01-09 00:41:00,46.4,44.0,30.16,West,265,0.0,-999.0,90,-99.99,,,0.00,weatherlink.com 1.10,2013-01-09 06:41:00,
2013-01-09 00:56:00,46.4,44.0,30.16,NNE,32,2.0,-999.0,90,-99.99,,,0.01,weatherlink.com 1.10,2013-01-09 06:56:00,
2013-01-09 01:11:00,46.4,44.0,30.17,North,10,0.0,-999.0,90,-99.99,,,0.01,weatherlink.com 1.10,2013-01-09 07:11:00,
2013-01-09 01:27:00,46.4,44.0,30.16,NE,41,0.0,-999.0,90,-99.99,,,0.01,weatherlink.com 1.10,2013-01-09 07:27:00,
2013-01-09 01:41:00,46.4,44.0,30.17,NE,46,0.0,-999.0,90,-99.99,,,0.01,weatherlink.com 1.10,2013-01-09 07:41:00,
2013-01-09 01:56:00,46.4,44.0,30.17,ENE,57,1.0,-999.0,90,-99.99,,,0.01,weatherlink.com 1.10,2013-01-09 07:56:00,
2013-01-09 02:11:00,46.4,44.0,30.16,NNE,30,4.0,-999.0,90,-99.99,,,0.01,weatherlink.com 1.10,2013-01-09 08:11:00,
2013-01-09 02:27:00,46.2,44.0,30.17,NNE,18,5.0,-999.0,91,-99.99,,,0.01,weatherlink.com 1.10,2013-01-09 08:27:00,
2013-01-09 02:41:00,46.1,44.0,30.17,NNE,13,6.0,-999.0,91,-99.99,,,0.01,weatherlink.com 1.10,2013-01-09 08:41:00,
2013-01-09 02:56:00,46.2,44.0,30.17,NE,42,10.0,-999.0,91,-99.99,,,0.01,weatherlink.com 1.10,2013-01-09 08:56:00,
2013-01-09 03:11:00,46.4,44.0,30.17,NE,41,9.0,-999.0,91,-99.99,,,0.01,weatherlink.com 1.10,2013-01-09 09:11:00,
2013-01-09 03:27:00,46.5,44.0,30.17,NNE,20,5.0,-999.0,91,-99.99,,,0.01,weatherlink.com 1.10,2013-01-09 09:27:00,
2013-01-09 03:41:00,46.7,44.0,30.17,NNE,22,6.0,-999.0,91,-99.99,,,0.01,weatherlink.com 1.10,2013-01-09 09:41:00,
2013-01-09 03:56:00,46.7,44.0,30.17,NNE,22,5.0,-999.0,91,-99.99,,,0.01,weatherlink.com 1.10,2013-01-09 09:56:00,
2013-01-09 04:11:00,46.8,44.0,30.17,North,360,2.0,-999.0,91,-99.99,,,0.01,weatherlink.com 1.10,2013-01-09 10:11:00,
2013-01-09 04:27:00,46.8,44.0,30.18,NNE,30,3.0,-999.0,91,-99.99,,,0.01,weatherlink.com 1.10,2013-01-09 10:27:00,
2013-01-09 04:41:00,46.8,45.0,30.18,NNE,24,4.0,-999.0,92,-99.99,,,0.01,weatherlink.com 1.10,2013-01-09 10:41:00,
2013-01-09 04:56:00,46.8,45.0,30.18,North,9,4.0,-999.0,92,-99.99,,,0.01,weatherlink.com 1.10,2013-01-09 10:56:00,
2013-01-09 05:11:00,46.8,45.0,30.18,NNE,17,6.0,-999.0,92,-99.99,,,0.01,weatherlink.com 1.10,2013-01-09 11:11:00,
2013-01-09 05:27:00,46.8,45.0,30.19,NNE,23,7.0,-999.0,92,-99.99,,,0.01,weatherlink.com 1.10,2013-01-09 11:27:00,
2013-01-09 05:41:00,47.0,45.0,30.19,NNE,13,3.0,-999.0,92,-99.99,,,0.01,weatherlink.com 1.10,2013-01-09 11:41:00,
2013-01-09 05:56:00,47.0,45.0,30.19,NE,40,3.0,-999.0,92,-99.99,,,0.01,weatherlink.com 1.10,2013-01-09 11:56:00,
2013-01-09 06:11:00,47.0,45.0,30.19,ENE,60,2.0,-999.0,92,-99.99,,,0.01,weatherlink.com 1.10,2013-01-09 12:11:00,
2013-01-09 06:27:00,47.1,45.0,30.20,NE,53,0.0,-999.0,92,-99.99,,,0.01,weatherlink.com 1.10,2013-01-09 12:27:00,
2013-01-09 06:41:00,47.3,45.0,30.22,NNE,27,1.0,-999.0,92,-99.99,,,0.01,weatherlink.com 1.10,2013-01-09 12:41:00,
2013-01-09 06:56:00,47.3,45.0,30.23,NE,36,0.0,-999.0,92,-99.99,,,0.01,weatherlink.com 1.10,2013-01-09 12:56:00,
2013-01-09 07:11:00,47.4,45.0,30.24,NNE,30,4.0,-999.0,92,-99.99,,,0.01,weatherlink.com 1.10,2013-01-09 13:11:00,
2013-01-09 07:27:00,47.4,45.0,30.24,NNE,28,3.0,-999.0,92,-99.99,,,0.01,weatherlink.com 1.10,2013-01-09 13:27:00,
2013-01-09 07:41:00,47.6,45.0,30.25,NNE,25,3.0,-999.0,92,-99.99,,,0.01,weatherlink.com 1.10,2013-01-09 13:41:00,
2013-01-09 07:56:00,47.3,45.0,30.25,NE,44,5.0,-999.0,92,-99.99,,,0.01,weatherlink.com 1.10,2013-01-09 13:56:00,
2013-01-09 08:11:00,47.1,45.0,30.27,NNE,32,5.0,-999.0,92,-99.99,,,0.01,weatherlink.com 1.10,2013-01-09 14:11:00,
2013-01-09 08:27:00,47.1,45.0,30.26,NNE,15,5.0,-999.0,92,-99.99,,,0.01,weatherlink.com 1.10,2013-01-09 14:27:00,
2013-01-09 08:41:00,47.3,45.0,30.27,NNE,32,7.0,-999.0,92,-99.99,,,0.01,weatherlink.com 1.10,2013-01-09 14:41:00,
2013-01-09 08:56:00,47.6,45.0,30.28,NNE,25,5.0,-999.0,92,-99.99,,,0.01,weatherlink.com 1.10,2013-01-09 14:56:00,
2013-01-09 09:11:00,47.7,46.0,30.28,NNE,22,6.0,-999.0,92,-99.99,,,0.01,weatherlink.com 1.10,2013-01-09 15:11:00,
2013-01-09 09:27:00,47.7,46.0,30.29,NE,44,3.0,-999.0,92,-99.99,,,0.01,weatherlink.com 1.10,2013-01-09 15:27:00,
2013-01-09 09:41:00,47.7,46.0,30.28,NNE,24,4.0,-999.0,92,-99.99,,,0.01,weatherlink.com 1.10,2013-01-09 15:41:00,
2013-01-09 09:56:00,47.7,46.0,30.28,NNE,32,7.0,-999.0,92,-99.99,,,0.01,weatherlink.com 1.10,2013-01-09 15:56:00,
2013-01-09 10:11:00,48.0,45.0,30.28,NE,46,5.0,-999.0,90,-99.99,,,0.01,weatherlink.com 1.10,2013-01-09 16:11:00,
2013-01-09 10:27:00,48.2,46.0,30.29,NE,40,9.0,-999.0,92,-99.99,,,0.01,weatherlink.com 1.10,2013-01-09 16:27:00,
2013-01-09 10:41:00,48.6,46.0,30.30,NE,41,7.0,-999.0,92,-99.99,,,0.01,weatherlink.com 1.10,2013-01-09 16:41:00,
2013-01-09 10:56:00,48.8,46.0,30.30,NNE,24,3.0,-999.0,91,-99.99,,,0.01,weatherlink.com 1.10,2013-01-09 16:56:00,
2013-01-09 11:11:00,48.9,46.0,30.30,North,9,4.0,-999.0,91,-99.99,,,0.01,weatherlink.com 1.10,2013-01-09 17:11:00,
2013-01-09 11:27:00,49.2,47.0,30.29,NNE,14,3.0,-999.0,90,-99.99,,,0.01,weatherlink.com 1.10,2013-01-09 17:27:00,
2013-01-09 11:41:00,49.6,47.0,30.28,NNE,24,4.0,-999.0,90,-99.99,,,0.01,weatherlink.com 1.10,2013-01-09 17:41:00,
2013-01-09 11:56:00,49.9,47.0,30.27,NE,38,6.0,-999.0,89,-99.99,,,0.01,weatherlink.com 1.10,2013-01-09 17:56:00,
2013-01-09 12:11:00,50.2,47.0,30.27,NNE,27,3.0,-999.0,89,-99.99,,,0.01,weatherlink.com 1.10,2013-01-09 18:11:00,
2013-01-09 12:27:00,50.8,47.0,30.25,NNE,26,8.0,-999.0,88,-99.99,,,0.01,weatherlink.com 1.10,2013-01-09 18:27:00,
2013-01-09 12:41:00,51.0,47.0,30.25,NNE,32,8.0,-999.0,86,-99.99,,,0.01,weatherlink.com 1.10,2013-01-09 18:41:00,
2013-01-09 12:56:00,51.0,47.0,30.25,North,349,9.0,-999.0,85,-99.99,,,0.01,weatherlink.com 1.10,2013-01-09 18:56:00,
2013-01-09 13:11:00,51.1,47.0,30.25,North,5,5.0,-999.0,85,-99.99,,,0.01,weatherlink.com 1.10,2013-01-09 19:11:00,
2013-01-09 13:27:00,51.1,46.0,30.25,NNE,20,9.0,-999.0,84,-99.99,,,0.01,weatherlink.com 1.10,2013-01-09 19:27:00,
2013-01-09 13:41:00,51.4,46.0,30.24,NNE,15,9.0,-999.0,83,-99.99,,,0.01,weatherlink.com 1.10,2013-01-09 19:41:00,
2013-01-09 13:56:00,51.9,47.0,30.23,NE,40,4.0,-999.0,82,-99.99,,,0.01,weatherlink.com 1.10,2013-01-09 19:56:00,
2013-01-09 14:11:00,52.3,46.0,30.22,NE,40,6.0,-999.0,80,-99.99,,,0.01,weatherlink.com 1.10,2013-01-09 20:11:00,
2013-01-09 14:27:00,52.9,46.0,30.22,NNE,32,7.0,-999.0,78,-99.99,,,0.01,weatherlink.com 1.10,2013-01-09 20:27:00,
2013-01-09 14:41:00,53.5,45.0,30.22,NE,49,9.0,-999.0,74,-99.99,,,0.01,weatherlink.com 1.10,2013-01-09 20:41:00,
2013-01-09 14:56:00,53.5,45.0,30.22,NE,50,11.0,-999.0,72,-99.99,,,0.01,weatherlink.com 1.10,2013-01-09 20:56:00,
2013-01-09 15:11:00,53.6,44.0,30.21,NE,53,12.0,-999.0,71,-99.99,,,0.01,weatherlink.com 1.10,2013-01-09 21:11:00,
2013-01-09 15:27:00,53.8,44.0,30.21,NE,46,5.0,-999.0,70,-99.99,,,0.01,weatherlink.com 1.10,2013-01-09 21:27:00,
2013-01-09 15:41:00,54.1,43.0,30.22,NNE,12,6.0,-999.0,67,-99.99,,,0.01,weatherlink.com 1.10,2013-01-09 21:41:00,
2013-01-09 15:56:00,54.2,43.0,30.21,NE,44,12.0,-999.0,67,-99.99,,,0.01,weatherlink.com 1.10,2013-01-09 21:56:00,
2013-01-09 16:11:00,54.2,43.0,30.21,NE,42,9.0,-999.0,65,-99.99,,,0.01,weatherlink.com 1.10,2013-01-09 22:11:00,
2013-01-09 16:27:00,54.2,42.0,30.21,NNE,31,4.0,-999.0,64,-99.99,,,0.01,weatherlink.com 1.10,2013-01-09 22:27:00,
2013-01-09 16:41:00,54.4,42.0,30.21,NNE,30,7.0,-999.0,63,-99.99,,,0.01,weatherlink.com 1.10,2013-01-09 22:41:00,
2013-01-09 16:56:00,54.4,41.0,30.21,NE,38,4.0,-999.0,62,-99.99,,,0.01,weatherlink.com 1.10,2013-01-09 22:56:00,
2013-01-09 17:11:00,54.2,41.0,30.21,NE,46,3.0,-999.0,61,-99.99,,,0.01,weatherlink.com 1.10,2013-01-09 23:11:00,
2013-01-09 17:27:00,54.2,40.0,30.20,NE,40,14.0,-999.0,60,-99.99,,,0.01,weatherlink.com 1.10,2013-01-09 23:27:00,
2013-01-09 17:41:00,53.9,40.0,30.20,North,5,15.0,-999.0,60,-99.99,,,0.01,weatherlink.com 1.10,2013-01-09 23:41:00,
2013-01-09 17:56:00,53.9,40.0,30.20,NE,47,6.0,-999.0,59,-99.99,,,0.01,weatherlink.com 1.10,2013-01-09 23:56:00,
2013-01-09 18:11:00,53.8,40.0,30.20,NE,51,9.0,-999.0,59,-99.99,,,0.01,weatherlink.com 1.10,2013-01-10 00:11:00,
2013-01-09 18:27:00,53.8,39.0,30.20,NE,46,10.0,-999.0,58,-99.99,,,0.01,weatherlink.com 1.10,2013-01-10 00:27:00,
2013-01-09 18:41:00,53.8,39.0,30.19,NNE,32,2.0,-999.0,58,-99.99,,,0.01,weatherlink.com 1.10,2013-01-10 00:41:00,
2013-01-09 18:56:00,53.6,39.0,30.20,NE,34,13.0,-999.0,58,-99.99,,,0.01,weatherlink.com 1.10,2013-01-10 00:56:00,
2013-01-09 19:11:00,53.6,39.0,30.20,NE,44,4.0,-999.0,58,-99.99,,,0.01,weatherlink.com 1.10,2013-01-10 01:11:00,
2013-01-09 19:27:00,53.5,39.0,30.20,NNE,26,9.0,-999.0,58,-99.99,,,0.01,weatherlink.com 1.10,2013-01-10 01:27:00,
2013-01-09 19:41:00,53.3,39.0,30.20,ENE,64,5.0,-999.0,58,-99.99,,,0.01,weatherlink.com 1.10,2013-01-10 01:41:00,
2013-01-09 19:56:00,53.3,39.0,30.20,NE,40,6.0,-999.0,58,-99.99,,,0.01,weatherlink.com 1.10,2013-01-10 01:56:00,
2013-01-09 20:11:00,53.2,39.0,30.20,NE,48,4.0,-999.0,58,-99.99,,,0.01,weatherlink.com 1.10,2013-01-10 02:11:00,
2013-01-09 20:27:00,52.9,39.0,30.19,NE,42,8.0,-999.0,60,-99.99,,,0.01,weatherlink.com 1.10,2013-01-10 02:27:00,
2013-01-09 20:41:00,52.6,39.0,30.18,NE,48,0.0,-999.0,61,-99.99,,,0.01,weatherlink.com 1.10,2013-01-10 02:41:00,
2013-01-09 20:56:00,52.8,39.0,30.18,NE,54,6.0,-999.0,60,-99.99,,,0.01,weatherlink.com 1.10,2013-01-10 02:56:00,
2013-01-09 21:11:00,52.9,39.0,30.17,NE,43,0.0,-999.0,60,-99.99,,,0.01,weatherlink.com 1.10,2013-01-10 03:11:00,
2013-01-09 21:27:00,52.9,39.0,30.17,NE,37,10.0,-999.0,60,-99.99,,,0.01,weatherlink.com 1.10,2013-01-10 03:27:00,
2013-01-09 21:41:00,52.9,39.0,30.15,NE,49,2.0,-999.0,60,-99.99,,,0.01,weatherlink.com 1.10,2013-01-10 03:41:00,
2013-01-09 21:56:00,52.9,39.0,30.15,NE,53,5.0,-999.0,60,-99.99,,,0.01,weatherlink.com 1.10,2013-01-10 03:56:00,
2013-01-09 22:11:00,52.9,39.0,30.15,NE,44,0.0,-999.0,60,-99.99,,,0.01,weatherlink.com 1.10,2013-01-10 04:11:00,
2013-01-09 22:27:00,52.9,40.0,30.14,NE,49,2.0,-999.0,61,-99.99,,,0.01,weatherlink.com 1.10,2013-01-10 04:27:00,
2013-01-09 22:41:00,53.2,40.0,30.14,ENE,57,7.0,-999.0,61,-99.99,,,0.01,weatherlink.com 1.10,2013-01-10 04:41:00,
2013-01-09 22:56:00,53.5,40.0,30.15,ENE,70,4.0,-999.0,61,-99.99,,,0.01,weatherlink.com 1.10,2013-01-10 04:56:00,
2013-01-09 23:11:00,53.5,41.0,30.15,ENE,78,0.0,-999.0,64,-99.99,,,0.01,weatherlink.com 1.10,2013-01-10 05:11:00,
2013-01-09 23:27:00,53.1,42.0,30.15,ENE,70,0.0,-999.0,66,-99.99,,,0.01,weatherlink.com 1.10,2013-01-10 05:27:00,
2013-01-09 23:56:00,52.3,43.0,30.12,ENE,59,0.0,-999.0,70,-99.99,,,0.01,weatherlink.com 1.10,2013-01-10 05:56:00,